Logan County (6L4)

 

Airport Diagram
No Airport Diagram Available
Current Weather/Forecast (VFR Conditions)
METAR K6L4 182355Z AUTO 00000KT 10SM OVC085 14/M02 A2988 RMK AO2
TAF

Airport Information

All Charts
General
Chart Name View
TAKEOFF MINIMUMS
ALTERNATE MINIMUMS
TAKEOFF MINIMUMS
ALTERNATE MINIMUMS

Approaches
Chart Name Download
RNAV (GPS) RWY 06
RNAV (GPS) RWY 24
RNAV (GPS) RWY 06
RNAV (GPS) RWY 24


Airport Statistics
Departures Arrivals Local
All Collected Stats since June 2016: 1 2 0
2021 Stats: 0 0 0
April Stats: 0 0 0

Inbound Traffic (Arrivals) - 0

No inbound traffic.


Outbound Traffic (Departures) - 0

No outbound traffic.


Local Traffic (Pattern) - 0

No local traffic.